SCP
0 0 0 1 1 1 0 0 0 0 0 0 0 0 -0 -0 -0 -0 -0 -0 -0 -0 -0 -0 -0 -0 -0 -0 -0 -0 -0 -0 -0 -0 -0 -0 -0 -0 -0 -0 -0 -0 -0
0 0 0 1 1 1 0 0 0 0 0 0 0 -0 -0 -0 -0 -0 -0 -0 -0 -0 -0 -0 -0 -0 -0 -0 -0 -0 -0 0 0 -0 -0 -0 -0 -0 -0 -0 -0 0 -0
0 0 1 1 1 1 1 0 0 0 0 0 0 -0 -0 -0 -0 -0 -0 -0 -0 -0 -0 -0 -0 -0 -0 -0 -0 -0 0 0 0 0 -0 -0 -0 -0 -0 -0 -0 -0 -0
1 1 1 1 1 1 0 0 0 0 0 0 0 -0 -0 0 -0 -0 -0 -0 -0 -0 -0 -0 -0 -0 -0 -0 -0 -0 -0 -0 0 0 0 -0 -0 -0 -0 -0 -0 -0 -0
1 1 1 1 0 1 0 0 0 0 0 0 -0 -0 0 -0 -0 -0 -0 -0 -0 -0 -0 -0 0 0 0 0 -0 -0 0 -0 0 0 0 -0 -0 0 0 0 0 0 0
1 1 1 1 1 1 0 1 0 0 0 0 -0 0 0 -0 -0 -0 -0 -0 -0 -0 0 0 0 0 0 0 0 0 -0 0 0 0 0 -0 -0 0 0 0 0 0 0
1 1 0 0 0 0 0 0 0 0 0 0 -0 0 0 -0 -0 -0 -0 0 0 0 0 0 0 0 0 0 0 0 0 0 0 0 0 0 -0 0 0 0 0 0 0
0 0 0 0 0 0 0 0 0 0 0 -0 0 0 0 0 -0 -0 0 0 0 0 0 0 0 0 0 0 0 0 0 0 0 0 0 0 0 0 0 0 0 0 0
0 0 0 0 0 -0 0 0 0 0 0 0 0 0 0 0 0 0 0 0 0 0 0 0 0 0 0 0 0 0 0 0 0 0 0 0 0 0 0 0 0 0 0
0 0 0 0 0 0 0 0 0 0 -0 0 -0 0 0 0 0 0 0 0 0 0 0 0 0 0 0 0 0 0 0 0 0 0 0 0 0 0 0 0 0 0 0
0 0 0 0 -0 0 0 0 0 -0 0 0 0 0 0 0 0 0 0 0 0 0 0 0 0 0 0 0 0 0 0 0 0 0 0 0 0 0 0 0 0 0 0
0 0 -0 -0 -0 -0 -0 -0 0 0 -0 0 0 0 0 0 0 0 0 0 0 0 0 0 0 0 0 0 0 0 0 0 0 0 0 0 0 0 0 0 0 0 0
-0 -0 -0 -0 -0 -0 0 0 0 0 0 0 0 0 0 0 0 0 0 0 0 0 0 0 0 0 0 0 0 0 0 0 0 0 0 0 0 0 0 0 0 0 0
-0 -0 -0 -0 -0 0 0 0 0 0 0 0 0 0 0 0 0 0 0 0 0 0 0 0 0 0 0 0 0 0 0 0 0 0 0 0 0 0 0 0 0 0 0
0 -0 0 -0 -0 -0 0 0 -0 -0 0 0 0 0 0 0 0 0 0 0 0 0 0 0 0 0 0 0 0 0 0 0 0 0 0 0 0 0 0 0 0 0 0
-0 -0 0 -0 -0 0 -0 -0 -0 0 0 0 0 0 0 0 0 0 0 0 0 0 0 0 0 0 0 0 0 0 0 0 0 0 0 0 0 0 0 0 0 0 0
-0 0 0 -0 -0 -0 -0 -0 0 0 0 0 0 0 0 0 0 0 0 0 0 0 0 0 0 0 0 0 0 0 0 0 0 0 0 0 0 0 0 0 0 0 0
-0 -0 -0 -0 -0 -0 -0 0 0 0 0 0 0 0 0 0 0 0 0 0 0 0 0 0 0 0 0 0 0 0 0 0 0 0 0 0 0 0 0 0 0 0 0
-0 -0 -0 -0 -0 -0 -0 0 0 0 0 0 0 0 0 0 0 0 0 0 0 0 0 0 0 0 0 0 0 0 0 0 0 0 0 0 0 0 0 0 0 0 0
-0 -0 -0 -0 -0 0 0 0 0 0 0 0 0 0 0 0 0 0 0 0 0 0 0 0 0 0 -0 0 0 0 -0 0 0 0 0 0 0 0 0 0 0 0 0
-0 -0 -0 -0 -0 0 0 0 0 0 0 0 0 0 0 0 0 0 0 0 0 0 0 0 0 0 0 0 0 0 -0 0 0 0 0 0 0 0 0 0 0 0 0
-0 -0 -0 0 -0 0 0 0 0 0 0 0 0 0 0 0 0 0 0 0 0 0 0 0 0 0 0 0 0 0 0 0 0 0 0 0 0 0 0 0 0 0 0
-0 -0 -0 -0 -0 0 0 0 0 0 0 0 0 0 0 0 0 0 0 0 0 0 0 0 0 0 0 0 0 0 0 0 0 0 0 0 0 0 0 0 0 0 0
-0 -0 -0 -0 -0 0 0 0 0 0 0 0 0 0 0 0 0 0 0 0 0 0 0 0 0 0 0 0 0 0 0 0 0 0 0 0 0 0 0 0 0 0 0
-0 -0 -0 0 0 0 0 0 0 0 0 0 0 0 0 0 0 0 0 0 0 0 0 0 0 0 0 0 0 0 0 0 0 0 0 0 0 0 0 0 0 0 0
-0 0 0 0 0 0 0 0 0 0 0 0 0 0 0 0 0 0 0 0 0 0 0 0 0 0 0 0 0 0 0 0 0 0 0 0 0 0 0 0 0 0 0
Wind_Speed_500mb
57 54 55 58 53 48 46 42 43 41 39 38 32 27 24 24 22 21 20 20 21 23 26 28 31 34 34 33 30 30 28 31 30 27 29 29 31 33 31 28 29 31 29
64 60 61 59 51 48 44 43 41 37 37 33 28 25 25 24 24 23 24 26 28 31 32 35 37 38 39 36 36 33 27 26 24 28 36 27 30 32 27 26 27 28 28
61 59 64 60 54 49 46 44 40 35 33 30 26 25 27 27 27 28 30 31 33 34 35 37 37 38 39 38 38 28 21 20 18 25 30 31 31 31 28 25 25 26 27
62 60 63 65 54 50 46 43 37 33 30 25 25 27 28 28 30 32 32 33 34 35 35 39 40 41 39 35 35 38 33 34 26 25 27 30 32 29 24 23 22 24 24
62 60 63 66 62 53 47 42 34 30 27 22 26 28 28 30 32 33 33 32 33 35 37 41 44 45 40 32 35 36 35 35 35 29 27 32 36 34 26 23 23 23 23
67 64 64 66 61 55 48 39 31 27 22 22 25 28 29 31 33 33 32 32 33 35 37 39 42 44 43 38 38 43 33 29 30 22 24 31 34 33 31 29 28 28 26
60 53 57 58 53 49 43 34 30 24 21 23 26 28 30 32 33 32 31 32 31 32 33 34 35 36 37 36 29 32 35 28 22 21 24 25 27 29 31 32 31 31 29
65 68 49 50 48 43 34 31 27 21 22 24 27 29 31 33 33 32 30 29 27 28 27 27 29 26 26 26 23 24 25 28 22 19 21 23 24 26 29 30 33 33 32
68 70 63 49 45 38 31 28 23 22 23 25 29 30 33 34 33 30 27 24 24 22 22 21 20 19 20 24 17 13 13 17 17 19 18 22 25 28 30 31 35 37 37
67 63 63 51 34 38 35 27 25 25 26 27 31 33 35 35 32 27 27 23 23 21 22 20 14 12 10 10 9 7 7 11 16 19 17 22 28 33 35 38 43 42 43
47 53 55 57 40 36 33 28 26 26 28 33 36 36 35 33 28 28 28 26 23 25 27 20 15 12 8 9 5 6 11 18 21 25 25 27 33 38 41 43 46 49 51
48 58 48 46 42 35 28 22 27 31 35 36 32 31 31 27 23 23 22 19 19 20 19 13 8 7 1 7 10 17 18 18 22 27 26 32 29 35 42 45 50 50 53
69 59 48 43 41 35 29 29 32 38 42 36 29 26 23 20 18 11 10 13 11 16 12 7 8 7 6 8 13 19 22 27 26 20 27 29 28 34 39 44 47 52 50
53 48 46 40 36 33 33 35 40 41 43 33 29 26 17 13 10 8 9 9 10 8 4 8 9 7 9 12 16 17 20 26 23 21 17 26 34 38 39 46 48 45 37
50 46 43 40 32 36 39 40 43 45 40 33 25 22 16 13 10 8 10 11 10 10 12 13 15 17 22 25 25 25 24 25 28 29 30 34 39 38 36 37 37 31 33
47 53 48 39 38 43 43 42 40 37 33 29 25 20 15 15 13 13 14 13 12 12 12 15 18 21 24 23 24 25 25 29 32 34 35 37 34 25 34 34 37 42 35
51 53 52 49 48 45 36 35 31 31 31 28 22 16 13 12 7 12 16 13 10 8 12 17 20 20 22 23 21 22 24 25 30 35 33 32 31 30 29 26 24 24 21
48 51 58 54 50 39 39 39 41 37 32 25 22 18 11 5 12 13 12 8 5 9 14 18 22 25 25 28 30 31 31 30 28 29 26 25 15 7 4 8 16 21 19
53 55 62 61 53 46 45 42 38 33 31 26 18 10 8 14 19 15 11 8 7 14 21 24 27 29 34 36 38 36 37 33 20 18 18 15 20 9 3 6 4 9 11
49 52 59 58 50 50 41 43 41 35 32 23 18 12 16 19 16 13 6 9 17 22 24 25 28 33 39 41 41 43 45 11 23 25 20 20 22 16 10 18 23 26 21
60 58 56 60 56 54 48 43 44 34 37 23 18 21 18 13 12 8 10 17 21 24 24 25 29 35 39 46 51 54 34 25 26 4 45 35 36 40 40 37 34 29 31
68 63 59 52 49 50 46 38 35 34 31 20 20 20 20 17 11 7 13 20 26 27 28 28 34 39 43 47 49 47 26 42 5 65 38 48 36 35 38 41 35 34 29
73 66 60 52 51 44 43 40 33 32 30 30 28 23 19 16 13 16 26 29 36 40 36 34 38 41 42 43 42 40 25 19 66 55 63 44 40 52 42 38 38 39 34
69 66 63 62 49 39 44 41 32 33 33 27 21 20 20 20 21 29 31 35 41 46 41 39 39 37 40 44 45 44 44 48 50 49 35 42 54 46 47 39 36 34 34
53 63 62 43 39 45 47 39 27 27 25 27 31 30 26 23 21 23 29 32 34 36 35 37 38 43 48 51 49 45 47 47 49 55 61 47 52 48 38 40 43 37 35
45 51 39 38 45 45 42 37 39 36 34 37 41 36 29 25 21 29 29 31 34 35 36 40 46 53 53 51 48 46 49 51 51 49 59 62 60 51 44 40 39 40 40
Wind_Direction_500mb
165 160 156 155 156 154 149 143 136 132 127 120 117 116 112 110 107 101 95 90 81 74 73 71 71 70 69 70 72 74 77 76 65 73 62 55 56 41 34 33 37 41 42
161 161 160 159 157 154 150 143 135 134 126 120 115 111 110 108 107 101 95 89 88 83 78 75 71 71 71 72 74 77 74 70 62 64 63 56 47 35 36 31 29 32 35
163 161 162 156 157 156 152 144 139 135 125 119 112 108 107 105 100 96 93 93 87 83 78 75 72 72 76 78 75 67 64 54 53 68 61 49 42 33 32 33 31 30 28
165 161 162 155 160 156 151 142 141 134 125 119 112 108 105 102 99 97 93 89 87 86 83 81 78 77 84 84 64 58 62 64 71 78 48 42 30 29 27 26 28 28 29
162 163 164 158 160 157 151 141 142 136 126 120 114 111 109 107 102 96 93 91 89 89 88 85 85 84 84 88 67 61 63 58 60 45 42 42 32 29 30 26 22 21 14
166 165 160 157 156 152 146 143 142 136 126 121 114 113 112 107 102 98 97 96 96 93 89 86 87 86 87 91 65 64 68 63 63 51 36 34 35 31 32 36 35 32 24
159 159 158 152 149 146 143 138 143 136 125 125 117 115 114 110 105 102 99 98 94 88 88 90 89 85 86 91 84 65 68 62 51 55 33 16 20 26 19 21 23 21 14
157 155 148 147 145 132 138 146 141 135 133 128 122 121 117 112 108 104 99 96 93 88 88 88 85 84 84 81 89 60 62 52 49 22 18 23 21 11 4 360 357 358 1
167 160 158 143 136 145 151 150 141 136 132 132 125 123 119 117 111 105 102 96 90 90 88 86 86 82 91 87 84 78 48 44 30 17 7 14 6 358 351 345 341 339 344
163 154 135 138 160 152 154 150 141 135 136 132 129 128 122 116 109 104 95 93 88 84 80 80 82 88 93 84 62 76 23 17 1 357 350 345 345 335 332 331 330 328 330
134 131 135 145 164 163 153 148 142 140 145 145 140 132 117 116 105 101 97 93 86 97 86 76 81 82 62 49 44 351 333 343 338 325 324 342 345 334 325 323 320 322 326
142 135 141 147 164 160 152 162 154 152 146 143 138 130 130 128 123 117 116 108 101 107 113 108 127 125 251 291 285 299 304 315 320 321 314 324 332 332 323 317 315 318 321
132 143 149 165 169 166 181 171 158 152 144 142 147 147 149 151 139 128 142 140 141 143 146 166 187 197 265 284 297 301 302 304 309 302 294 300 307 310 316 316 315 317 318
158 166 163 175 163 166 169 163 156 157 159 158 158 163 162 152 144 155 130 127 149 162 207 205 212 207 247 275 290 290 295 299 298 297 282 287 292 302 308 310 315 316 312
175 175 173 165 151 158 161 161 163 166 170 174 169 176 176 194 219 247 235 241 231 222 237 252 268 277 281 293 298 299 295 290 292 293 296 296 296 303 313 318 316 311 314
184 179 177 167 160 164 171 172 170 175 173 183 189 192 198 203 212 223 230 231 237 239 257 279 297 302 302 302 304 299 294 292 293 296 297 300 297 309 324 320 314 313 315
172 178 182 174 180 182 179 182 180 186 195 195 201 204 192 164 174 213 220 224 239 271 306 308 297 301 309 312 313 312 315 312 307 306 307 298 286 302 331 314 310 317 324
185 189 181 186 184 188 187 190 195 196 201 208 210 185 175 163 182 191 192 202 259 292 299 307 318 324 326 332 336 335 331 329 324 322 332 348 336 319 358 343 344 337 344
195 186 182 184 187 187 195 200 199 208 210 202 197 227 242 178 176 182 190 221 292 334 339 327 322 332 339 342 342 341 339 335 322 313 324 347 25 69 174 277 8 350 339
186 186 186 188 191 194 200 206 209 208 208 217 251 226 192 182 187 205 252 320 344 341 327 324 336 337 337 340 341 340 345 30 333 310 314 321 319 327 321 313 312 300 304
190 187 191 193 196 199 202 201 202 220 214 236 219 191 185 204 222 244 319 341 336 331 328 334 334 334 337 337 341 337 347 325 341 5 325 313 311 313 315 319 314 304 301
193 193 193 199 201 206 210 212 220 218 226 227 215 204 210 211 224 288 323 321 329 329 326 323 325 330 334 337 335 334 332 328 221 328 328 320 320 321 312 311 305 302 302
199 199 203 205 208 208 206 209 207 197 203 190 195 199 211 243 259 299 320 329 323 319 317 316 325 331 330 328 324 327 329 308 317 320 320 312 308 316 312 304 295 294 294
205 204 205 204 206 200 200 198 200 203 198 200 199 206 228 241 262 299 308 304 309 312 312 317 320 318 315 315 312 315 310 309 315 312 315 291 297 300 303 301 300 298 298
204 204 203 207 216 192 189 196 201 206 205 204 201 213 227 243 260 274 285 296 298 303 304 303 304 305 307 307 308 313 311 308 308 308 307 307 292 302 294 291 293 296 304
198 202 206 193 178 188 196 200 207 206 206 203 208 213 217 225 248 265 279 283 288 290 288 290 297 303 304 301 300 301 302 303 307 304 303 306 300 299 295 291 286 296 306
Wind_Speed_850mb
57 54 55 58 53 48 46 42 43 41 39 38 32 27 24 24 22 21 20 20 21 23 26 28 31 34 34 33 30 30 28 31 30 27 29 29 31 33 31 28 29 31 29
64 60 61 59 51 48 44 43 41 37 37 33 28 25 25 24 24 23 24 26 28 31 32 35 37 38 39 36 36 33 27 26 24 28 36 27 30 32 27 26 27 28 28
61 59 64 60 54 49 46 44 40 35 33 30 26 25 27 27 27 28 30 31 33 34 35 37 37 38 39 38 38 28 21 20 18 25 30 31 31 31 28 25 25 26 27
62 60 63 65 54 50 46 43 37 33 30 25 25 27 28 28 30 32 32 33 34 35 35 39 40 41 39 35 35 38 33 34 26 25 27 30 32 29 24 23 22 24 24
62 60 63 66 62 53 47 42 34 30 27 22 26 28 28 30 32 33 33 32 33 35 37 41 44 45 40 32 35 36 35 35 35 29 27 32 36 34 26 23 23 23 23
67 64 64 66 61 55 48 39 31 27 22 22 25 28 29 31 33 33 32 32 33 35 37 39 42 44 43 38 38 43 33 29 30 22 24 31 34 33 31 29 28 28 26
60 53 57 58 53 49 43 34 30 24 21 23 26 28 30 32 33 32 31 32 31 32 33 34 35 36 37 36 29 32 35 28 22 21 24 25 27 29 31 32 31 31 29
65 68 49 50 48 43 34 31 27 21 22 24 27 29 31 33 33 32 30 29 27 28 27 27 29 26 26 26 23 24 25 28 22 19 21 23 24 26 29 30 33 33 32
68 70 63 49 45 38 31 28 23 22 23 25 29 30 33 34 33 30 27 24 24 22 22 21 20 19 20 24 17 13 13 17 17 19 18 22 25 28 30 31 35 37 37
67 63 63 51 34 38 35 27 25 25 26 27 31 33 35 35 32 27 27 23 23 21 22 20 14 12 10 10 9 7 7 11 16 19 17 22 28 33 35 38 43 42 43
47 53 55 57 40 36 33 28 26 26 28 33 36 36 35 33 28 28 28 26 23 25 27 20 15 12 8 9 5 6 11 18 21 25 25 27 33 38 41 43 46 49 51
48 58 48 46 42 35 28 22 27 31 35 36 32 31 31 27 23 23 22 19 19 20 19 13 8 7 1 7 10 17 18 18 22 27 26 32 29 35 42 45 50 50 53
69 59 48 43 41 35 29 29 32 38 42 36 29 26 23 20 18 11 10 13 11 16 12 7 8 7 6 8 13 19 22 27 26 20 27 29 28 34 39 44 47 52 50
53 48 46 40 36 33 33 35 40 41 43 33 29 26 17 13 10 8 9 9 10 8 4 8 9 7 9 12 16 17 20 26 23 21 17 26 34 38 39 46 48 45 37
50 46 43 40 32 36 39 40 43 45 40 33 25 22 16 13 10 8 10 11 10 10 12 13 15 17 22 25 25 25 24 25 28 29 30 34 39 38 36 37 37 31 33
47 53 48 39 38 43 43 42 40 37 33 29 25 20 15 15 13 13 14 13 12 12 12 15 18 21 24 23 24 25 25 29 32 34 35 37 34 25 34 34 37 42 35
51 53 52 49 48 45 36 35 31 31 31 28 22 16 13 12 7 12 16 13 10 8 12 17 20 20 22 23 21 22 24 25 30 35 33 32 31 30 29 26 24 24 21
48 51 58 54 50 39 39 39 41 37 32 25 22 18 11 5 12 13 12 8 5 9 14 18 22 25 25 28 30 31 31 30 28 29 26 25 15 7 4 8 16 21 19
53 55 62 61 53 46 45 42 38 33 31 26 18 10 8 14 19 15 11 8 7 14 21 24 27 29 34 36 38 36 37 33 20 18 18 15 20 9 3 6 4 9 11
49 52 59 58 50 50 41 43 41 35 32 23 18 12 16 19 16 13 6 9 17 22 24 25 28 33 39 41 41 43 45 11 23 25 20 20 22 16 10 18 23 26 21
60 58 56 60 56 54 48 43 44 34 37 23 18 21 18 13 12 8 10 17 21 24 24 25 29 35 39 46 51 54 34 25 26 4 45 35 36 40 40 37 34 29 31
68 63 59 52 49 50 46 38 35 34 31 20 20 20 20 17 11 7 13 20 26 27 28 28 34 39 43 47 49 47 26 42 5 65 38 48 36 35 38 41 35 34 29
73 66 60 52 51 44 43 40 33 32 30 30 28 23 19 16 13 16 26 29 36 40 36 34 38 41 42 43 42 40 25 19 66 55 63 44 40 52 42 38 38 39 34
69 66 63 62 49 39 44 41 32 33 33 27 21 20 20 20 21 29 31 35 41 46 41 39 39 37 40 44 45 44 44 48 50 49 35 42 54 46 47 39 36 34 34
53 63 62 43 39 45 47 39 27 27 25 27 31 30 26 23 21 23 29 32 34 36 35 37 38 43 48 51 49 45 47 47 49 55 61 47 52 48 38 40 43 37 35
45 51 39 38 45 45 42 37 39 36 34 37 41 36 29 25 21 29 29 31 34 35 36 40 46 53 53 51 48 46 49 51 51 49 59 62 60 51 44 40 39 40 40
Wind_Direction_850mb
165 160 156 155 156 154 149 143 136 132 127 120 117 116 112 110 107 101 95 90 81 74 73 71 71 70 69 70 72 74 77 76 65 73 62 55 56 41 34 33 37 41 42
161 161 160 159 157 154 150 143 135 134 126 120 115 111 110 108 107 101 95 89 88 83 78 75 71 71 71 72 74 77 74 70 62 64 63 56 47 35 36 31 29 32 35
163 161 162 156 157 156 152 144 139 135 125 119 112 108 107 105 100 96 93 93 87 83 78 75 72 72 76 78 75 67 64 54 53 68 61 49 42 33 32 33 31 30 28
165 161 162 155 160 156 151 142 141 134 125 119 112 108 105 102 99 97 93 89 87 86 83 81 78 77 84 84 64 58 62 64 71 78 48 42 30 29 27 26 28 28 29
162 163 164 158 160 157 151 141 142 136 126 120 114 111 109 107 102 96 93 91 89 89 88 85 85 84 84 88 67 61 63 58 60 45 42 42 32 29 30 26 22 21 14
166 165 160 157 156 152 146 143 142 136 126 121 114 113 112 107 102 98 97 96 96 93 89 86 87 86 87 91 65 64 68 63 63 51 36 34 35 31 32 36 35 32 24
159 159 158 152 149 146 143 138 143 136 125 125 117 115 114 110 105 102 99 98 94 88 88 90 89 85 86 91 84 65 68 62 51 55 33 16 20 26 19 21 23 21 14
157 155 148 147 145 132 138 146 141 135 133 128 122 121 117 112 108 104 99 96 93 88 88 88 85 84 84 81 89 60 62 52 49 22 18 23 21 11 4 360 357 358 1
167 160 158 143 136 145 151 150 141 136 132 132 125 123 119 117 111 105 102 96 90 90 88 86 86 82 91 87 84 78 48 44 30 17 7 14 6 358 351 345 341 339 344
163 154 135 138 160 152 154 150 141 135 136 132 129 128 122 116 109 104 95 93 88 84 80 80 82 88 93 84 62 76 23 17 1 357 350 345 345 335 332 331 330 328 330
134 131 135 145 164 163 153 148 142 140 145 145 140 132 117 116 105 101 97 93 86 97 86 76 81 82 62 49 44 351 333 343 338 325 324 342 345 334 325 323 320 322 326
142 135 141 147 164 160 152 162 154 152 146 143 138 130 130 128 123 117 116 108 101 107 113 108 127 125 251 291 285 299 304 315 320 321 314 324 332 332 323 317 315 318 321
132 143 149 165 169 166 181 171 158 152 144 142 147 147 149 151 139 128 142 140 141 143 146 166 187 197 265 284 297 301 302 304 309 302 294 300 307 310 316 316 315 317 318
158 166 163 175 163 166 169 163 156 157 159 158 158 163 162 152 144 155 130 127 149 162 207 205 212 207 247 275 290 290 295 299 298 297 282 287 292 302 308 310 315 316 312
175 175 173 165 151 158 161 161 163 166 170 174 169 176 176 194 219 247 235 241 231 222 237 252 268 277 281 293 298 299 295 290 292 293 296 296 296 303 313 318 316 311 314
184 179 177 167 160 164 171 172 170 175 173 183 189 192 198 203 212 223 230 231 237 239 257 279 297 302 302 302 304 299 294 292 293 296 297 300 297 309 324 320 314 313 315
172 178 182 174 180 182 179 182 180 186 195 195 201 204 192 164 174 213 220 224 239 271 306 308 297 301 309 312 313 312 315 312 307 306 307 298 286 302 331 314 310 317 324
185 189 181 186 184 188 187 190 195 196 201 208 210 185 175 163 182 191 192 202 259 292 299 307 318 324 326 332 336 335 331 329 324 322 332 348 336 319 358 343 344 337 344
195 186 182 184 187 187 195 200 199 208 210 202 197 227 242 178 176 182 190 221 292 334 339 327 322 332 339 342 342 341 339 335 322 313 324 347 25 69 174 277 8 350 339
186 186 186 188 191 194 200 206 209 208 208 217 251 226 192 182 187 205 252 320 344 341 327 324 336 337 337 340 341 340 345 30 333 310 314 321 319 327 321 313 312 300 304
190 187 191 193 196 199 202 201 202 220 214 236 219 191 185 204 222 244 319 341 336 331 328 334 334 334 337 337 341 337 347 325 341 5 325 313 311 313 315 319 314 304 301
193 193 193 199 201 206 210 212 220 218 226 227 215 204 210 211 224 288 323 321 329 329 326 323 325 330 334 337 335 334 332 328 221 328 328 320 320 321 312 311 305 302 302
199 199 203 205 208 208 206 209 207 197 203 190 195 199 211 243 259 299 320 329 323 319 317 316 325 331 330 328 324 327 329 308 317 320 320 312 308 316 312 304 295 294 294
205 204 205 204 206 200 200 198 200 203 198 200 199 206 228 241 262 299 308 304 309 312 312 317 320 318 315 315 312 315 310 309 315 312 315 291 297 300 303 301 300 298 298
204 204 203 207 216 192 189 196 201 206 205 204 201 213 227 243 260 274 285 296 298 303 304 303 304 305 307 307 308 313 311 308 308 308 307 307 292 302 294 291 293 296 304
198 202 206 193 178 188 196 200 207 206 206 203 208 213 217 225 248 265 279 283 288 290 288 290 297 303 304 301 300 301 302 303 307 304 303 306 300 299 295 291 286 296 306